Regional Weather Roundup
Issued by NWS Wakefield, VA

Home | Current Version | Previous Version | Graphics & Text | Print | Product List | Glossary On
Versions: 1 2 3 4 5 6 7 8 9 10 11 12 13 14 15 16 17 18 19 20 21 22 23 24 25 26 27 28 29 30 31 32 33 34 35 36 37 38 39 40 41 42 43 44 45 46 47 48 49 50
000
ASUS41 KAKQ 020910
RWRAKQ

REGIONAL WEATHER ROUNDUP
NATIONAL WEATHER SERVICE WAKEFIELD VA
400 AM EST MON MAR 02 2015

Note: "fair" indicates few or no clouds below 12,000 feet with no
significant weather and/or obstructions to visibility. * = Denotes
station may not report precipitation (e.g., rain,snow,etc.),
thunder or fog.

VAZ042-051-052>054-056-021000-
NORTHERN VIRGINIA

CITY           SKY/WX    TMP DP  RH WIND       PRES   REMARKS
WASH NATIONAL  FOG       34  30  86 S8        30.10F VSB 1/2
DULLES         FOG       31  30  96 S5        30.08F VSB 1/4
FORT BELVOIR   FOG       32  31  97 CALM      30.10R VSB 1/4
QUANTICO       CLOUDY    33  30  88 CALM      30.11R FOG
FREDERICKSBRG* CLOUDY    34  34 100 CALM      30.09S FOG
STAFFORD*      FOG       32  32 100 CALM      30.13S VSB 1/2
WARRENTON      FOG       33  33 100 CALM      30.08R VSB 1/4
CULPEPER*      FOG       34  34 100 CALM      30.08F VSB 1/2
MANASSAS*      CLOUDY    34  34 100 CALM      30.08F VSB 1/2
LEESBURG*      CLOUDY    32  32 100 CALM      30.08F FOG
WINCHESTER     CLOUDY    32  28  86 CALM      30.06S FOG
FRONT ROYAL*   PTSUNNY   28  28 100 CALM      30.05F
LURAY*         CLOUDY    36  36 100 CALM      30.04F
$$

VAZ048-049-060>072-079>083-021000-
CENTRAL AND SOUTH CENTRAL VIRGINIA

CITY           SKY/WX    TMP DP  RH WIND       PRES   REMARKS
RICHMOND       FOG       34  32  93 SW7       30.13R VSB 1/8
CHESTERFIELD*  CLOUDY    34  23  64 W5        30.14S VSB 1/2
PETERSBURG*    CLOUDY    35  35 100 W5        30.14R FOG
HANOVER        FOG       33  33 100 SW8       30.14S VSB 1/2
TAPPAHANNOCK*  FOG       33  32  94 SW3       30.10F VSB 1/2
QUINTON*       CLOUDY    32  32 100 SW3       30.12F VSB 1/2
CHARLOTTSVILLE MOCLDY    32  31  96 S8        30.07S FOG
GORDONSVILLE*  CLOUDY    32  32  99 SW6       30.08S FOG
ORANGE*        FOG       34  34 100 S5        30.10R VSB 3/4
LOUISA*        FOG       34  34 100 SW3       30.08R VSB 1/2
BUMPASS*       CLOUDY    32  32 100 SW6       30.10S VSB 1/2
FARMVILLE*     CLOUDY    36  36 100 SW5       30.16R FOG
CREWE*         CLOUDY    34  33  95 CALM      30.13R
FORT PICKETT*  CLOUDY    33  32  97 SW9       30.13R VSB 1
CHASE CITY*    CLOUDY    36  36 100 CALM      30.14R VSB 1/4
CLARKSVILLE*   CLOUDY    32  32 100 W5        30.15S VSB 1/4
SOUTH HILL*    CLOUDY    32  32 100 SW6       30.20F VSB 1/4
LAWRENCEVILLE* CLOUDY    32  32 100 SW9       30.13F VSB 1/2
EMPORIA*       FOG       32  32 100 S3        30.16F VSB 3/4
$$

VAZ088>098-021000-
SOUTHEAST VIRGINIA

CITY           SKY/WX    TMP DP  RH WIND       PRES   REMARKS
NORFOLK        CLOUDY    35  32  88 SW9       30.14R
VIRGINIA BEACH MOCLDY    37  34  89 W10       30.14R FOG
NORFOLK NAVAL  CLOUDY    37  32  82 SW5       30.14F FOG
WEST POINT*    CLOUDY    36  34  92 SW6       30.14F
SALUDA*        CLOUDY    32  32  99 CALM      30.09F
NEWPORT NEWS   CLOUDY    36  33  89 SW8       30.13F FOG
LANGLEY AFB    CLOUDY    34  32  93 W8        30.12F
FORT EUSTIS    CLOUDY    33  33 100 W5        30.11F FOG
WILLIAMSBURG*  CLOUDY    36  36 100 SW6       30.12F
HR EXEC AP*    CLOUDY    36  32  87 SW5       30.15F VSB 1
FRANKLIN*      FOG       33  33  99 SW3       30.15F VSB 3/4
WAKEFIELD      FOG       33  32  96 S5        30.13F VSB 1/2
$$

VAZ020-022-025-037-045-021000-
WEST CENTRAL AND SOUTHWEST VIRGINIA

CITY           SKY/WX    TMP DP  RH WIND       PRES   REMARKS
STAUNTON*      PTCLDY    42  38  85 S7        30.07S
WAYNESBORO*    CLOUDY    45  40  83 SW5       30.07S
HOT SPRINGS VA SNOW      39  39 100 W21G30    30.01F VSB<1/4
LYNCHBURG      CLOUDY    32  32 100 SW6       30.12F FOG
DANVILLE       FOG       37  35  92 SW10      30.15F VSB 1/2
SOUTH BOSTON*  CLOUDY    36  35  96 SW6       30.15S VSB 1/2
MARTINSVILLE   CLOUDY    37  37 100 SW3       30.18S FOG
ROANOKE        CLOUDY    46  42  86 W15       30.15F
BLACKSBURG     LGT RAIN  40  40  99 W6        30.20R VSB 1/2
DUBLIN*        RAIN      43  43 100 SW8       30.17S VSB 1
MARION*        RAIN      42  40  95 W15G28    30.20F
HILLSVILLE*    DRIZZLE   45  44  99 W9G16     30.17R
RICHLANDS*     RAIN      41  39  94 W7        30.19F
WISE*          DRZL/FOG  41  41 100 NW7       30.24R VSB 1/2
ABINGDON*      LGT RAIN  41  41  99 W7        30.23S VSB 1/2
$$

MDZ021>025-VAZ099-100-021000-
SOUTHERN MARYLAND AND THE DELMARVA PENINSULA

CITY           SKY/WX    TMP DP  RH WIND       PRES   REMARKS
PATUXENT RIVER FOG       32  31  96 SW3       30.08F VSB 1
BAY BRIDGE APT FOG       32  32 100 CALM      30.09F VSB 1/2
LEONARDTOWN    CLOUDY    32  32 100 W5        30.11F VSB 3/4
DOVER          MIX PCPN  32  32 100 CALM      30.08F
GEORGETOWN     CLOUDY    32  31  96 W5        30.09F FOG
EASTON         FOG       33  33 100 SW3       30.12F VSB 1/4
CAMBRIDGE      NOT AVBL
SALISBURY      FOG       35  32  88 W7        30.10S VSB 3/4
OCEAN CITY     CLOUDY    32  32 100 SW6       30.09F FOG
WALLOPS ISLAND FOG       32  32 100 W6        30.11F VSB 3/4
ACCOMACK*      FOG       32  32 100 W8        30.11F VSB 3/4
$$

NCZ012>017-030>032-021000-
NORTH CENTRAL AND EASTERN NORTH CAROLINA

CITY           SKY/WX    TMP DP  RH WIND       PRES   REMARKS
ROANOKE RAPIDS FOG       34  34 100 SW7       30.16F VSB 1/4
RALEIGH        FOG       36  34  92 SW7       30.17F VSB 1/4
ELIZABETH CITY FOG       37  36  96 SW8       30.16F VSB 3/4
AHOSKIE*       FOG       34  33  99 S3        30.16F VSB 1/2
EDENTON*       FOG       37  36  99 W5        30.18F VSB 1/2
CURRITUCK*     CLOUDY    37  36  96 SW9       30.16F FOG
KILL DEVIL HLS FOG       40  40 100 W7        30.16F VSB 1/4
MANTEO         CLOUDY    39  39 100 W9        30.17F FOG
CAPE HATTERAS  FOG       44  44 100 W7        30.19F VSB 1/2
TARBORO*       FOG       37  37  97 CALM      30.19F VSB 1/2
GOLDSBORO      FOG       39  39 100 SW5       30.18F VSB 1/4
WASHINGTON     FOG       38  38  98 SW5       30.19F VSB 1/2
GREENVILLE     FOG       37  37 100 SW3       30.20F VSB 1
NEW BERN       CLOUDY    43  42  97 W3        30.22F FOG
WILMINGTON     FOG       44  44 100 W5        30.24F VSB 1/4
$$

VAZ048-021000-
ELSEWHERE

CITY           SKY/WX    TMP DP  RH WIND       PRES   REMARKS
HARRISBURG PA  CLOUDY    27  25  92 CALM      30.07F FOG
BALTIMORE      CLOUDY    32  31  96 CALM      30.07F FOG
ANNAPOLIS      CLOUDY    32  31  96 MISG      30.08F FOG
ANDREWS AFB    FOG       32  32 100 CALM      30.08S VSB 1/2
PHILADELPHIA   CLOUDY    32  30  92 SW5       30.09F FOG
HENDERSON NC   FOG       34  33  96 SW10      30.14F VSB 1/4
GREENSBORO     FOG       36  36 100 SW9       30.15F VSB 1/4
ROCKY MOUNT    FOG       38  38 100 S6        30.18F VSB 3/4
$$

VAZ100-021000-
MARINE

STATION/POSITION TIME  TEMP    WIND        PRES    WAVE   SWELL
                       AIR SEA DIR/SP/G            HT/PER HT/PER
                 (UTC) (F)     (DEG/KT/KT) (MB)    (FT/S) (FT/S)
BRANDYWINE LGT   0900   32 30              1019.3S
CAPE MAY NJ      0900   31 32              1018.9S
LEWES DE         0900   33 30              1019.5R
15NM E FENWICK I 0900   33 34              1018.7F   3/ 6
OCEAN-CITY-INLET 0900   33 32              1018.9F
WACHAPREAGUE VA  0900   33 33  260/  4/  7 1020.0F
THOMAS POINT MD  0900   31 31     CALM     1019.5F
COVE POINT MD    0900   32                 1019.0F
SOLOMONS ISLAND  0900      32                N/A
BISHOPS HEAD MD  0900   32 31              1019.0F
CAMBRIDGE MD     0900   32 32              1019.4S
LEWISETTA VA     0900   33 33              1018.8F
RAPPAHANNOCK LGT 0900          220/  7/  8 1020.4F
STINGRAY PT      0900   33     240/  8/ 10   N/A
YORK RVR RNG VA  0900   34     280/  8/  9 1019.9F
YORKTOWN VA      0900   34 33  270/  5/  8 1019.9F
DOMINION TERM VA 0900   34     280/  7/  9 1020.8F
KIPTOPEKE VA     0900      37  300/  6/  8   N/A
CHES BAY BRIDGE  0900   35 33  250/  8/ 10 1020.3S
CAPE HENRY VA    0900   35     240/  5/ 10 1019.0F
CHESAPEAKE LGHT  0800   35     230/ 16/ 17 1020.8F
WILLOUBY STN VA  0900   34     250/ 10/ 10 1020.8F
S CRANEY ISL VA  0900          240/  3/  5 1020.7F
CAPE HENRY BUOY  0900      35                N/A     3/ 6
1ST LANDING BUOY 0900   34     280/  8/  8 1020.3F
OFFSHORE WE BUOY 0900      36                N/A     4/ 6   3/ 6
64NM E OF VA BCH 0900   44 52  230/ 16/ 17 1019.6F   4/ 6   2/ 8
DUCK PIER NC     0900   36 34  240/ 16/ 18 1020.7S
44100 DUCK FRF   0900      37                N/A     4/ 6
44056 DUCK FRF   0900                        N/A     4/ 6
OREGON INLET NC  0900   42 42  280/  9/ 11 1021.9F
HATTERAS NC      0900   45 42  260/  7/ 11 1022.7F
CAPE LOOKOUT NC  0800   47     250/  7/  9 1023.3F
$$


USA.gov is the U.S. government's official web portal to all federal, state and local government web resources and services.